owner,sensor,date,latitude,longitude,vertical_datum,wind_speed,wind_to_direction,wind_speed_of_gust,qcFlag 
TABS,ioos:station:wmo:42046:1,2013-07-01T00:00:00Z,27.8903,-94.0367,4.0,2.777210831,296.7495155,3.11,'11111222,11111222,11111222' 
TABS,ioos:station:wmo:42046:1,2013-07-01T00:30:00Z,27.8903,-94.0367,4.0,2.857481409,305.0247914,3.33,'11111222,11111222,11111222' 
TABS,ioos:station:wmo:42046:1,2013-07-01T01:00:00Z,27.8903,-94.0367,4.0,2.722388657,307.8379778,3.2,'11111222,11111222,11111222' 
TABS,ioos:station:wmo:42046:1,2013-07-01T01:30:00Z,27.8903,-94.0367,4.0,2.364444967,312.2572898,2.76,'11111222,11111222,11111222' 
TABS,ioos:station:wmo:42046:1,2013-07-01T02:00:00Z,27.8903,-94.0367,4.0,1.409822684,301.6606771,1.84,'11111222,11111222,11111222' 
TABS,ioos:station:wmo:42046:1,2013-07-01T02:30:00Z,27.8903,-94.0367,4.0,0.986559679,280.5126026,2.1,'11111222,11111222,11111222' 
TABS,ioos:station:wmo:42046:1,2013-07-01T03:00:00Z,27.8903,-94.0367,4.0,0.113137085,135.0003157,0.54,'11111222,11111222,11111222' 
TABS,ioos:station:wmo:42046:1,2013-07-01T03:30:00Z,27.8903,-94.0367,4.0,1.286001555,126.7811257,1.63,'11111222,11111222,11111222' 
TABS,ioos:station:wmo:42046:1,2013-07-01T04:00:00Z,27.8903,-94.0367,4.0,1.28097619,192.6260178,1.63,'11111222,11111222,11111222' 
TABS,ioos:station:wmo:42046:1,2013-07-01T04:30:00Z,27.8903,-94.0367,4.0,1.183427226,184.3617729,1.48,'11111222,11111222,11111222' 
TABS,ioos:station:wmo:42046:1,2013-07-01T05:00:00Z,27.8903,-94.0367,4.0,3.383858744,210.3540805,3.84,'11111222,11111222,11111222' 
TABS,ioos:station:wmo:42046:1,2013-07-01T05:30:00Z,27.8903,-94.0367,4.0,3.756234817,216.2293625,4.51,'11111222,11111222,11111222' 
TABS,ioos:station:wmo:42046:1,2013-07-01T06:00:00Z,27.8903,-94.0367,4.0,4.561107322,224.3783164,5.13,'11111222,11111222,11111222' 
TABS,ioos:station:wmo:42046:1,2013-07-01T06:30:00Z,27.8903,-94.0367,4.0,4.638642043,224.8254239,5.2,'11111222,11111222,11111222' 
TABS,ioos:station:wmo:42046:1,2013-07-01T07:00:00Z,27.8903,-94.0367,4.0,4.498099599,230.6837983,5.18,'11111222,11111222,11111222' 
TABS,ioos:station:wmo:42046:1,2013-07-01T07:30:00Z,27.8903,-94.0367,4.0,4.473678576,236.4876165,5.78,'11111222,11111222,11111222' 
TABS,ioos:station:wmo:42046:1,2013-07-01T08:00:00Z,27.8903,-94.0367,4.0,4.448516607,256.7447612,5.38,'11111222,11111222,11111222' 
TABS,ioos:station:wmo:42046:1,2013-07-01T08:30:00Z,27.8903,-94.0367,4.0,3.815783013,273.1548355,4.61,'11111222,11111222,11111222' 
TABS,ioos:station:wmo:42046:1,2013-07-01T09:00:00Z,27.8903,-94.0367,4.0,3.807637063,279.9818059,4.57,'11111222,11111222,11111222' 
TABS,ioos:station:wmo:42046:1,2013-07-01T09:30:00Z,27.8903,-94.0367,4.0,3.630123965,270.473507,4.44,'11111222,11111222,11111222' 
TABS,ioos:station:wmo:42046:1,2013-07-01T10:00:00Z,27.8903,-94.0367,4.0,2.610076627,270.4390385,3.31,'11111222,11111222,11111222' 
TABS,ioos:station:wmo:42046:1,2013-07-01T10:30:00Z,27.8903,-94.0367,4.0,3.107442678,290.5344169,3.79,'11111222,11111222,11111222' 
TABS,ioos:station:wmo:42046:1,2013-07-01T11:00:00Z,27.8903,-94.0367,4.0,3.263525701,288.7680162,4.07,'11111222,11111222,11111222' 
TABS,ioos:station:wmo:42046:1,2013-07-01T11:30:00Z,27.8903,-94.0367,4.0,2.612757164,291.5570289,3.22,'11111222,11111222,11111222' 
TABS,ioos:station:wmo:42046:1,2013-07-01T12:00:00Z,27.8903,-94.0367,4.0,2.140023364,282.4126191,2.86,'11111222,11111222,11111222' 
TABS,ioos:station:wmo:42046:1,2013-07-01T12:30:00Z,27.8903,-94.0367,4.0,1.960229578,285.383261,2.5,'11111222,11111222,11111222' 
TABS,ioos:station:wmo:42046:1,2013-07-01T13:00:00Z,27.8903,-94.0367,4.0,2.91317696,294.5415606,3.37,'11111222,11111222,11111222' 
TABS,ioos:station:wmo:42046:1,2013-07-01T13:30:00Z,27.8903,-94.0367,4.0,2.60771931,297.6459107,3.07,'11111222,11111222,11111222' 
TABS,ioos:station:wmo:42046:1,2013-07-01T14:00:00Z,27.8903,-94.0367,4.0,2.504156545,306.229152,3.1,'11111222,11111222,11111222' 
TABS,ioos:station:wmo:42046:1,2013-07-01T14:30:00Z,27.8903,-94.0367,4.0,2.346955475,289.6701999,2.86,'11111222,11111222,11111222' 
TABS,ioos:station:wmo:42046:1,2013-07-01T15:00:00Z,27.8903,-94.0367,4.0,2.200772592,292.7199442,2.8,'11111222,11111222,11111222' 
TABS,ioos:station:wmo:42046:1,2013-07-01T15:30:00Z,27.8903,-94.0367,4.0,1.661926593,272.7591012,2.27,'11111222,11111222,11111222' 
TABS,ioos:station:wmo:42046:1,2013-07-01T16:00:00Z,27.8903,-94.0367,4.0,2.595149321,263.8061095,3.35,'11111222,11111222,11111222' 
TABS,ioos:station:wmo:42046:1,2013-07-01T16:30:00Z,27.8903,-94.0367,4.0,2.787866568,304.773061,3.52,'11111222,11111222,11111222' 
TABS,ioos:station:wmo:42046:1,2013-07-01T17:00:00Z,27.8903,-94.0367,4.0,2.449203952,317.6475182,3.01,'11111222,11111222,11111222' 
TABS,ioos:station:wmo:42046:1,2013-07-01T17:30:00Z,27.8903,-94.0367,4.0,2.158703314,336.5224445,4.48,'11111222,11111222,11111222' 
TABS,ioos:station:wmo:42046:1,2013-07-01T18:00:00Z,27.8903,-94.0367,4.0,4.826851976,20.87532747,5.74,'11111222,11111222,11111222' 
TABS,ioos:station:wmo:42046:1,2013-07-01T18:30:00Z,27.8903,-94.0367,4.0,5.201941945,27.59923932,6.11,'11111222,11111222,11111222' 
TABS,ioos:station:wmo:42046:1,2013-07-01T19:00:00Z,27.8903,-94.0367,4.0,5.452504012,27.64570026,6.46,'11111222,11111222,11111222' 
TABS,ioos:station:wmo:42046:1,2013-07-01T19:30:00Z,27.8903,-94.0367,4.0,6.149186938,26.5647786,7.28,'11111222,11111222,11111222' 
TABS,ioos:station:wmo:42046:1,2013-07-01T20:00:00Z,27.8903,-94.0367,4.0,6.258594091,23.94363207,7.53,'11111222,11111222,11111222' 
TABS,ioos:station:wmo:42046:1,2013-07-01T20:30:00Z,27.8903,-94.0367,4.0,6.255885229,24.55738389,7.24,'11111222,11111222,11111222' 
TABS,ioos:station:wmo:42046:1,2013-07-01T21:00:00Z,27.8903,-94.0367,4.0,6.14391569,22.89219682,7.34,'11111222,11111222,11111222' 
TABS,ioos:station:wmo:42046:1,2013-07-01T21:30:00Z,27.8903,-94.0367,4.0,6.444967029,15.84745746,7.61,'11111222,11111222,11111222' 
TABS,ioos:station:wmo:42046:1,2013-07-01T22:00:00Z,27.8903,-94.0367,4.0,6.553716503,17.2181752,7.5,'11111222,11111222,11111222' 
TABS,ioos:station:wmo:42046:1,2013-07-01T22:30:00Z,27.8903,-94.0367,4.0,6.552503338,15.30855607,7.79,'11111222,11111222,11111222' 
TABS,ioos:station:wmo:42046:1,2013-07-01T23:00:00Z,27.8903,-94.0367,4.0,6.891226306,13.16886726,8.02,'11111222,11111222,11111222' 
TABS,ioos:station:wmo:42046:1,2013-07-01T23:30:00Z,27.8903,-94.0367,4.0,5.862874721,16.549227,7.28,'11111222,11111222,11111222' 
TABS,ioos:station:wmo:42046:1,2013-07-02T00:00:00Z,27.8903,-94.0367,4.0,6.819281487,12.79285329,7.95,'11111222,11111222,11111222' 
TABS,ioos:station:wmo:42046:1,2013-07-02T00:30:00Z,27.8903,-94.0367,4.0,5.482335269,7.124789229,7.23,'11111222,11111222,11111222' 
TABS,ioos:station:wmo:42046:1,2013-07-02T01:00:00Z,27.8903,-94.0367,4.0,5.782611867,26.16597544,7.4,'11111222,11111222,11111222' 
TABS,ioos:station:wmo:42046:1,2013-07-02T01:30:00Z,27.8903,-94.0367,4.0,6.209186742,11.70782694,7.4,'11111222,11111222,11111222' 
TABS,ioos:station:wmo:42046:1,2013-07-02T02:00:00Z,27.8903,-94.0367,4.0,6.420669747,28.36091755,8.53,'11111222,11111222,11111222' 
TABS,ioos:station:wmo:42046:1,2013-07-02T02:30:00Z,27.8903,-94.0367,4.0,6.540856213,34.66162138,8.15,'11111222,11111222,11111222' 
TABS,ioos:station:wmo:42046:1,2013-07-02T03:00:00Z,27.8903,-94.0367,4.0,6.725027881,50.914077,8.76,'11111222,11111222,11111222' 
TABS,ioos:station:wmo:42046:1,2013-07-02T03:30:00Z,27.8903,-94.0367,4.0,6.740029674,52.9597514,8.05,'11111222,11111222,11111222' 
TABS,ioos:station:wmo:42046:1,2013-07-02T04:00:00Z,27.8903,-94.0367,4.0,6.031956565,50.58328224,7.11,'11111222,11111222,11111222' 
TABS,ioos:station:wmo:42046:1,2013-07-02T04:30:00Z,27.8903,-94.0367,4.0,5.990701128,46.28473121,7.27,'11111222,11111222,11111222' 
TABS,ioos:station:wmo:42046:1,2013-07-02T05:00:00Z,27.8903,-94.0367,4.0,4.838388161,54.93003067,6.3,'11111222,11111222,11111222' 
TABS,ioos:station:wmo:42046:1,2013-07-02T05:30:00Z,27.8903,-94.0367,4.0,5.135542815,46.57767765,6.85,'11111222,11111222,11111222' 
TABS,ioos:station:wmo:42046:1,2013-07-02T06:00:00Z,27.8903,-94.0367,4.0,4.577390086,59.40083044,5.9,'11111222,11111222,11111222' 
TABS,ioos:station:wmo:42046:1,2013-07-02T06:30:00Z,27.8903,-94.0367,4.0,3.951417467,49.61856469,5.0,'11111222,11111222,11111222' 
TABS,ioos:station:wmo:42046:1,2013-07-02T07:00:00Z,27.8903,-94.0367,4.0,3.309773406,39.60578642,4.13,'11111222,11111222,11111222' 
TABS,ioos:station:wmo:42046:1,2013-07-02T07:30:00Z,27.8903,-94.0367,4.0,3.477944795,7.26782371,4.4,'11111222,11111222,11111222' 
TABS,ioos:station:wmo:42046:1,2013-07-02T08:00:00Z,27.8903,-94.0367,4.0,4.414396901,7.156986835,5.84,'11111222,11111222,11111222' 
TABS,ioos:station:wmo:42046:1,2013-07-02T08:30:00Z,27.8903,-94.0367,4.0,4.772054065,72.05826182,7.9,'11111222,11111222,11111222' 
TABS,ioos:station:wmo:42046:1,2013-07-02T09:00:00Z,27.8903,-94.0367,4.0,3.775725096,83.30748832,4.96,'11111222,11111222,11111222' 
TABS,ioos:station:wmo:42046:1,2013-07-02T09:30:00Z,27.8903,-94.0367,4.0,2.976188838,72.59965746,4.19,'11111222,11111222,11111222' 
TABS,ioos:station:wmo:42046:1,2013-07-02T10:00:00Z,27.8903,-94.0367,4.0,2.83480158,39.41709161,4.03,'11111222,11111222,11111222' 
TABS,ioos:station:wmo:42046:1,2013-07-02T10:30:00Z,27.8903,-94.0367,4.0,3.372906758,44.87956783,4.7,'11111222,11111222,11111222' 
TABS,ioos:station:wmo:42046:1,2013-07-02T11:00:00Z,27.8903,-94.0367,4.0,3.543458762,43.74189817,4.86,'11111222,11111222,11111222' 
TABS,ioos:station:wmo:42046:1,2013-07-02T11:30:00Z,27.8903,-94.0367,4.0,3.10652539,42.78205439,4.43,'11111222,11111222,11111222' 
TABS,ioos:station:wmo:42046:1,2013-07-02T12:00:00Z,27.8903,-94.0367,4.0,2.857166428,30.96347367,4.12,'11111222,11111222,11111222' 
TABS,ioos:station:wmo:42046:1,2013-07-02T12:30:00Z,27.8903,-94.0367,4.0,4.519701318,19.51712939,6.01,'11111222,11111222,11111222' 
TABS,ioos:station:wmo:42046:1,2013-07-02T13:00:00Z,27.8903,-94.0367,4.0,5.093132631,353.4608427,6.19,'11111222,11111222,11111222' 
TABS,ioos:station:wmo:42046:1,2013-07-02T13:30:00Z,27.8903,-94.0367,4.0,5.951646831,358.6519054,7.17,'11111222,11111222,11111222' 
TABS,ioos:station:wmo:42046:1,2013-07-02T14:00:00Z,27.8903,-94.0367,4.0,5.124724383,357.5393808,6.59,'11111222,11111222,11111222' 
TABS,ioos:station:wmo:42046:1,2013-07-02T14:30:00Z,27.8903,-94.0367,4.0,4.860658392,0.942842569,6.14,'11111222,11111222,11111222' 
TABS,ioos:station:wmo:42046:1,2013-07-02T15:00:00Z,27.8903,-94.0367,4.0,5.465720447,2.6213855,6.52,'11111222,11111222,11111222' 
TABS,ioos:station:wmo:42046:1,2013-07-02T15:30:00Z,27.8903,-94.0367,4.0,4.894772722,4.452350761,5.96,'11111222,11111222,11111222' 
TABS,ioos:station:wmo:42046:1,2013-07-02T16:00:00Z,27.8903,-94.0367,4.0,5.946301371,355.7562867,7.2,'11111222,11111222,11111222' 
TABS,ioos:station:wmo:42046:1,2013-07-02T16:30:00Z,27.8903,-94.0367,4.0,5.60022321,353.1285895,6.79,'11111222,11111222,11111222' 
TABS,ioos:station:wmo:42046:1,2013-07-02T17:00:00Z,27.8903,-94.0367,4.0,5.600008929,359.897476,6.75,'11111222,11144222,11111222' 
TABS,ioos:station:wmo:42046:1,2013-07-02T17:30:00Z,27.8903,-94.0367,4.0,4.760168064,0.481254221,5.9,'11111222,11111222,11111222' 
TABS,ioos:station:wmo:42046:1,2013-07-02T18:00:00Z,27.8903,-94.0367,4.0,4.576166518,12.36560377,5.8,'11111222,11111222,11111222' 
TABS,ioos:station:wmo:42046:1,2013-07-02T18:30:00Z,27.8903,-94.0367,4.0,4.338133239,11.56871571,5.34,'11111222,11111222,11111222' 
TABS,ioos:station:wmo:42046:1,2013-07-02T19:00:00Z,27.8903,-94.0367,4.0,4.192970308,11.41689029,5.06,'11111222,11111222,11111222' 
TABS,ioos:station:wmo:42046:1,2013-07-02T19:30:00Z,27.8903,-94.0367,4.0,4.133594078,23.52593393,5.22,'11111222,11111222,11111222' 
TABS,ioos:station:wmo:42046:1,2013-07-02T20:00:00Z,27.8903,-94.0367,4.0,3.97102002,23.91827288,5.13,'11111222,11111222,11111222' 
TABS,ioos:station:wmo:42046:1,2013-07-02T20:30:00Z,27.8903,-94.0367,4.0,3.771538148,21.46262528,4.77,'11111222,11111222,11111222' 
TABS,ioos:station:wmo:42046:1,2013-07-02T21:00:00Z,27.8903,-94.0367,4.0,4.079338182,18.43469526,5.62,'11111222,11111222,11111222' 
TABS,ioos:station:wmo:42046:1,2013-07-02T21:30:00Z,27.8903,-94.0367,4.0,3.560337063,30.74268229,4.84,'11111222,11111222,11111222' 
TABS,ioos:station:wmo:42046:1,2013-07-02T22:00:00Z,27.8903,-94.0367,4.0,3.052212312,24.3815444,4.05,'11111222,11111222,11111222' 
TABS,ioos:station:wmo:42046:1,2013-07-02T22:30:00Z,27.8903,-94.0367,4.0,3.257115288,21.99714151,4.45,'11111222,11111222,11111222' 
TABS,ioos:station:wmo:42046:1,2013-07-02T23:00:00Z,27.8903,-94.0367,4.0,3.002165885,42.02946065,4.27,'11111222,11111222,11111222' 
TABS,ioos:station:wmo:42046:1,2013-07-02T23:30:00Z,27.8903,-94.0367,4.0,2.670674072,38.1569269,3.76,'11111222,11111222,11111222' 
TABS,ioos:station:wmo:42046:1,2013-07-03T00:00:00Z,27.8903,-94.0367,4.0,3.190376153,46.65076459,4.52,'11111222,11111222,11111222' 
TABS,ioos:station:wmo:42046:1,2013-07-03T00:30:00Z,27.8903,-94.0367,4.0,2.999233235,35.22648068,3.75,'11111222,11111222,11111222' 
TABS,ioos:station:wmo:42046:1,2013-07-03T01:00:00Z,27.8903,-94.0367,4.0,3.09741828,45.78450708,3.93,'11111222,11111222,11111222' 
TABS,ioos:station:wmo:42046:1,2013-07-03T01:30:00Z,27.8903,-94.0367,4.0,2.602152955,44.99968431,3.49,'11111222,11111222,11111222' 
TABS,ioos:station:wmo:42046:1,2013-07-03T02:00:00Z,27.8903,-94.0367,4.0,2.120023585,25.71870188,2.83,'11111222,11111222,11111222' 
TABS,ioos:station:wmo:42046:1,2013-07-03T02:30:00Z,27.8903,-94.0367,4.0,1.820164828,26.42400334,2.49,'11111222,11111222,11111222' 
TABS,ioos:station:wmo:42046:1,2013-07-03T03:00:00Z,27.8903,-94.0367,4.0,2.415056935,26.03427852,3.41,'11111222,11111222,11111222' 
TABS,ioos:station:wmo:42046:1,2013-07-03T03:30:00Z,27.8903,-94.0367,4.0,2.531600284,38.9069269,3.65,'11111222,11111222,11111222' 
TABS,ioos:station:wmo:42046:1,2013-07-03T04:00:00Z,27.8903,-94.0367,4.0,2.236805758,50.25969423,3.15,'11111222,11111222,11111222' 
TABS,ioos:station:wmo:42046:1,2013-07-03T04:30:00Z,27.8903,-94.0367,4.0,1.774091317,53.71110149,2.66,'11111222,11111222,11111222' 
TABS,ioos:station:wmo:42046:1,2013-07-03T05:00:00Z,27.8903,-94.0367,4.0,1.914079413,63.30072194,3.12,'11111222,11111222,11111222' 
TABS,ioos:station:wmo:42046:1,2013-07-03T05:30:00Z,27.8903,-94.0367,4.0,0.927631392,48.05837473,1.71,'11111222,11111222,11111222' 
TABS,ioos:station:wmo:42046:1,2013-07-03T06:00:00Z,27.8903,-94.0367,4.0,1.386001443,8.714502037,2.07,'11111222,11111222,11111222' 
TABS,ioos:station:wmo:42046:1,2013-07-03T06:30:00Z,27.8903,-94.0367,4.0,1.186802427,16.14409057,2.23,'11111222,11111222,11111222' 
TABS,ioos:station:wmo:42046:1,2013-07-03T07:00:00Z,27.8903,-94.0367,4.0,0.604152299,331.313709,2.12,'11111222,11111222,11111222' 
TABS,ioos:station:wmo:42046:1,2013-07-03T07:30:00Z,27.8903,-94.0367,4.0,0.946678404,328.8285134,1.8,'11111222,11111222,11111222' 
TABS,ioos:station:wmo:42046:1,2013-07-03T08:00:00Z,27.8903,-94.0367,4.0,1.427795504,28.89841956,2.22,'11111222,11111222,11111222' 
TABS,ioos:station:wmo:42046:1,2013-07-03T08:30:00Z,27.8903,-94.0367,4.0,1.962294575,324.1227696,3.0,'11111222,11111222,11111222' 
TABS,ioos:station:wmo:42046:1,2013-07-03T09:00:00Z,27.8903,-94.0367,4.0,2.344120304,332.0136352,3.33,'11111222,11111222,11111222' 
TABS,ioos:station:wmo:42046:1,2013-07-03T09:30:00Z,27.8903,-94.0367,4.0,2.459532476,351.1119586,3.46,'11111222,11111222,11111222' 
TABS,ioos:station:wmo:42046:1,2013-07-03T10:00:00Z,27.8903,-94.0367,4.0,2.698740447,348.0236851,3.76,'11111222,11111222,11111222' 
TABS,ioos:station:wmo:42046:1,2013-07-03T10:30:00Z,27.8903,-94.0367,4.0,2.52051582,354.7642121,3.57,'11111222,11111222,11111222' 
TABS,ioos:station:wmo:42046:1,2013-07-03T11:00:00Z,27.8903,-94.0367,4.0,3.010813843,358.6675728,4.05,'11111222,11111222,11111222' 
TABS,ioos:station:wmo:42046:1,2013-07-03T11:30:00Z,27.8903,-94.0367,4.0,3.900564062,346.9611634,5.07,'11111222,11111222,11111222' 
TABS,ioos:station:wmo:42046:1,2013-07-03T12:00:00Z,27.8903,-94.0367,4.0,3.743861643,357.3972334,4.86,'11111222,11111222,11111222' 
TABS,ioos:station:wmo:42046:1,2013-07-03T12:30:00Z,27.8903,-94.0367,4.0,3.840885315,5.977549155,5.1,'11111222,11111222,11111222' 
TABS,ioos:station:wmo:42046:1,2013-07-03T13:00:00Z,27.8903,-94.0367,4.0,3.839505176,355.9673421,5.01,'11111222,11111222,11111222' 
TABS,ioos:station:wmo:42046:1,2013-07-03T13:30:00Z,27.8903,-94.0367,4.0,4.366600508,356.8490805,5.73,'11111222,11111222,11111222' 
TABS,ioos:station:wmo:42046:1,2013-07-03T14:00:00Z,27.8903,-94.0367,4.0,4.229952718,3.930987451,5.32,'11111222,11111222,11111222' 
TABS,ioos:station:wmo:42046:1,2013-07-03T14:30:00Z,27.8903,-94.0367,4.0,4.903152047,351.5557153,5.81,'11111222,11111222,11111222' 
TABS,ioos:station:wmo:42046:1,2013-07-03T15:00:00Z,27.8903,-94.0367,4.0,5.025942698,353.1434496,6.39,'11111222,11111222,11111222' 
TABS,ioos:station:wmo:42046:1,2013-07-03T15:30:00Z,27.8903,-94.0367,4.0,5.408974025,17.09469061,6.39,'11111222,11111222,11111222' 
TABS,ioos:station:wmo:42046:1,2013-07-03T16:00:00Z,27.8903,-94.0367,4.0,6.038683631,11.84932681,7.45,'11111222,11111222,11111222' 
TABS,ioos:station:wmo:42046:1,2013-07-03T16:30:00Z,27.8903,-94.0367,4.0,6.020298996,13.25117742,7.39,'11111222,11111222,11111222' 
TABS,ioos:station:wmo:42046:1,2013-07-03T17:00:00Z,27.8903,-94.0367,4.0,5.573724069,13.48749466,6.62,'11111222,11111222,11111222' 
TABS,ioos:station:wmo:42046:1,2013-07-03T17:30:00Z,27.8903,-94.0367,4.0,5.004897601,25.69440233,6.32,'11111222,11111222,11111222' 
TABS,ioos:station:wmo:42046:1,2013-07-03T18:00:00Z,27.8903,-94.0367,4.0,4.951646191,29.25662412,6.17,'11111222,11111222,11111222' 
TABS,ioos:station:wmo:42046:1,2013-07-03T18:30:00Z,27.8903,-94.0367,4.0,5.174794682,30.03299975,6.65,'11111222,11111222,11111222' 
TABS,ioos:station:wmo:42046:1,2013-07-03T19:00:00Z,27.8903,-94.0367,4.0,5.710078809,37.17062611,6.82,'11111222,11111222,11111222' 
TABS,ioos:station:wmo:42046:1,2013-07-03T19:30:00Z,27.8903,-94.0367,4.0,5.958003021,36.81190145,6.71,'11111222,11111222,11111222' 
TABS,ioos:station:wmo:42046:1,2013-07-03T20:00:00Z,27.8903,-94.0367,4.0,5.60022321,29.99840093,6.8,'11111222,11111222,11111222' 
TABS,ioos:station:wmo:42046:1,2013-07-03T20:30:00Z,27.8903,-94.0367,4.0,5.6440854,33.80239857,6.97,'11111222,11111222,11111222' 
TABS,ioos:station:wmo:42046:1,2013-07-03T21:00:00Z,27.8903,-94.0367,4.0,5.853417805,38.82766382,6.96,'11111222,11111222,11111222' 
TABS,ioos:station:wmo:42046:1,2013-07-03T21:30:00Z,27.8903,-94.0367,4.0,5.311289862,33.48034344,6.22,'11111222,11111222,11111222' 
TABS,ioos:station:wmo:42046:1,2013-07-03T22:00:00Z,27.8903,-94.0367,4.0,5.008991915,40.3032233,6.2,'11111222,11111222,11111222' 
TABS,ioos:station:wmo:42046:1,2013-07-03T22:30:00Z,27.8903,-94.0367,4.0,5.086000393,36.84707024,6.7,'11111222,11111222,11111222' 
TABS,ioos:station:wmo:42046:1,2013-07-03T23:00:00Z,27.8903,-94.0367,4.0,5.417757839,38.32918159,6.87,'11111222,11111222,11111222' 
TABS,ioos:station:wmo:42046:1,2013-07-03T23:30:00Z,27.8903,-94.0367,4.0,0.0,0.0,0.0,'11111222,11111222,11111222' 
TABS,ioos:station:wmo:42046:1,2013-07-04T00:00:00Z,27.8903,-94.0367,4.0,5.992829048,63.86216153,6.75,'11111222,11111222,11111222' 
TABS,ioos:station:wmo:42046:1,2013-07-04T00:30:00Z,27.8903,-94.0367,4.0,5.250838028,64.26419642,6.32,'11111222,11111222,11111222' 
TABS,ioos:station:wmo:42046:1,2013-07-04T01:00:00Z,27.8903,-94.0367,4.0,5.503635162,65.29720662,7.12,'11111222,11111222,11111222' 
TABS,ioos:station:wmo:42046:1,2013-07-04T01:30:00Z,27.8903,-94.0367,4.0,5.379386582,60.24155645,6.97,'11111222,11111222,11111222' 
TABS,ioos:station:wmo:42046:1,2013-07-04T02:00:00Z,27.8903,-94.0367,4.0,5.485918337,68.9546188,6.72,'11111222,11111222,11111222' 
TABS,ioos:station:wmo:42046:1,2013-07-04T02:30:00Z,27.8903,-94.0367,4.0,5.519248137,67.52350493,6.99,'11111222,11111222,11111222' 
TABS,ioos:station:wmo:42046:1,2013-07-04T03:00:00Z,27.8903,-94.0367,4.0,5.542355095,75.26131251,6.65,'11111222,11111222,11111222' 
TABS,ioos:station:wmo:42046:1,2013-07-04T03:30:00Z,27.8903,-94.0367,4.0,5.708949115,78.78808527,6.87,'11111222,11111222,11111222' 
TABS,ioos:station:wmo:42046:1,2013-07-04T04:00:00Z,27.8903,-94.0367,4.0,5.813097281,86.15273159,6.98,'11111222,11111222,11111222' 
TABS,ioos:station:wmo:42046:1,2013-07-04T04:30:00Z,27.8903,-94.0367,4.0,5.728498931,85.39376449,7.09,'11111222,11111222,11111222' 
TABS,ioos:station:wmo:42046:1,2013-07-04T05:00:00Z,27.8903,-94.0367,4.0,5.036715199,87.04060856,5.77,'11111222,11111222,11111222' 
TABS,ioos:station:wmo:42046:1,2013-07-04T05:30:00Z,27.8903,-94.0367,4.0,4.981425499,79.00547263,6.34,'11111222,11111222,11111222' 
TABS,ioos:station:wmo:42046:1,2013-07-04T06:00:00Z,27.8903,-94.0367,4.0,5.3337604,66.46252005,6.42,'11111222,11111222,11111222' 
TABS,ioos:station:wmo:42046:1,2013-07-04T06:30:00Z,27.8903,-94.0367,4.0,4.794163118,77.47080067,6.23,'11111222,11111222,11111222' 
TABS,ioos:station:wmo:42046:1,2013-07-04T07:00:00Z,27.8903,-94.0367,4.0,4.224653832,82.65589479,5.37,'11111222,11111222,11111222' 
TABS,ioos:station:wmo:42046:1,2013-07-04T07:30:00Z,27.8903,-94.0367,4.0,4.288507899,86.38991743,5.28,'11111222,11111222,11111222' 
TABS,ioos:station:wmo:42046:1,2013-07-04T08:00:00Z,27.8903,-94.0367,4.0,3.360252967,77.45230627,4.19,'11111222,11111222,11111222' 
TABS,ioos:station:wmo:42046:1,2013-07-04T08:30:00Z,27.8903,-94.0367,4.0,2.076174366,75.49483972,2.94,'11111222,11111222,11111222' 
TABS,ioos:station:wmo:42046:1,2013-07-04T09:00:00Z,27.8903,-94.0367,4.0,2.25290923,35.24174369,2.77,'11111222,11111222,11111222' 
TABS,ioos:station:wmo:42046:1,2013-07-04T09:30:00Z,27.8903,-94.0367,4.0,1.982170527,52.3782029,2.95,'11111222,11111222,11111222' 
TABS,ioos:station:wmo:42046:1,2013-07-04T10:00:00Z,27.8903,-94.0367,4.0,3.172664495,2.348137363,4.33,'11111222,11111222,11111222' 
TABS,ioos:station:wmo:42046:1,2013-07-04T10:30:00Z,27.8903,-94.0367,4.0,2.713263717,18.70180589,3.49,'11111222,11111222,11111222' 
TABS,ioos:station:wmo:42046:1,2013-07-04T11:00:00Z,27.8903,-94.0367,4.0,3.194761337,11.55590002,4.36,'11111222,11111222,11111222' 
TABS,ioos:station:wmo:42046:1,2013-07-04T11:30:00Z,27.8903,-94.0367,4.0,3.593021013,10.7467652,4.73,'11111222,11111222,11111222' 
TABS,ioos:station:wmo:42046:1,2013-07-04T12:00:00Z,27.8903,-94.0367,4.0,4.274634487,12.70302764,5.13,'11111222,11111222,11111222' 
TABS,ioos:station:wmo:42046:1,2013-07-04T12:30:00Z,27.8903,-94.0367,4.0,4.30313839,10.57852374,5.37,'11111222,11111222,11111222' 
TABS,ioos:station:wmo:42046:1,2013-07-04T13:00:00Z,27.8903,-94.0367,4.0,3.924206926,9.534099193,4.83,'11111222,11111222,11111222' 
TABS,ioos:station:wmo:42046:1,2013-07-04T13:30:00Z,27.8903,-94.0367,4.0,4.454772721,8.129872884,5.27,'11111222,11111222,11111222' 
TABS,ioos:station:wmo:42046:1,2013-07-04T14:00:00Z,27.8903,-94.0367,4.0,4.300813876,18.85597917,5.15,'11111222,11111222,11111222' 
TABS,ioos:station:wmo:42046:1,2013-07-04T14:30:00Z,27.8903,-94.0367,4.0,4.500688836,3.949345941,5.53,'11111222,11111222,11111222' 
TABS,ioos:station:wmo:42046:1,2013-07-04T15:00:00Z,27.8903,-94.0367,4.0,3.940355314,5.826117946,4.78,'11111222,11111222,11111222' 
TABS,ioos:station:wmo:42046:1,2013-07-04T15:30:00Z,27.8903,-94.0367,4.0,4.562126697,36.44259179,5.45,'11111222,11111222,11111222' 
TABS,ioos:station:wmo:42046:1,2013-07-04T16:00:00Z,27.8903,-94.0367,4.0,4.653170962,40.4674332,5.55,'11111222,11111222,11111222' 
TABS,ioos:station:wmo:42046:1,2013-07-04T16:30:00Z,27.8903,-94.0367,4.0,4.24802307,37.05842774,5.17,'11111222,11111222,11111222' 
TABS,ioos:station:wmo:42046:1,2013-07-04T17:00:00Z,27.8903,-94.0367,4.0,4.373785546,42.59060857,5.54,'11111222,11111222,11111222' 
TABS,ioos:station:wmo:42046:1,2013-07-04T17:30:00Z,27.8903,-94.0367,4.0,4.190871031,34.10688018,5.49,'11111222,11111222,11111222' 
TABS,ioos:station:wmo:42046:1,2013-07-04T18:00:00Z,27.8903,-94.0367,4.0,4.804674807,23.68373781,5.89,'11111222,11111222,11111222' 
TABS,ioos:station:wmo:42046:1,2013-07-04T18:30:00Z,27.8903,-94.0367,4.0,4.855563819,24.45345291,5.96,'11111222,11111222,11111222' 
TABS,ioos:station:wmo:42046:1,2013-07-04T19:00:00Z,27.8903,-94.0367,4.0,4.727811333,27.59457996,5.7,'11111222,11111222,11111222' 